Location: Newark
(41.6500°N, 71.4833°W)
Time: 11:04:23
(UTC+00:00)

Courier 1B - Pass Details

Date: 28 January 2020
Orbit: 962 x 1209 km, 28.3° (Epoch: 20 February)

Event Time Altitude Azimuth Distance (km) Brightness Sun altitude
Rises 09:48:02 0° 255° (WSW) 3,903 - -25.1°
Reaches altitude 10° 09:51:17 10° 243° (WSW) 2,987 - -24.5°
Exits shadow 09:54:45 21° 217° (SW) 2,296 9.1 -23.8°
Maximum altitude 09:57:00 25° 192° (SSW) 2,158 9.2 -23.4°
Drops below altitude 10° 10:02:57 10° 141° (SE) 3,102 10.7 -22.3°
Sets 10:06:24 0° 129° (SE) 4,086 11.7 -21.7°
